Location: Cuiry
(49.3858°N, 3.7708°E)
Time: 23:21:06
(UTC+00:00)

PSLV R/B - Pass Details

Date: 12 January 2026
Orbit: 560 x 588 km, 98.0° (Epoch: 9 February)

Event Time Altitude Azimuth Distance (km) Brightness Sun altitude
Rises 17:50:02 0° 151° (SSE) 2,797 6.8 -15.7°
Reaches altitude 10° 17:52:13 10° 146° (SE) 1,905 5.9 -16.0°
Maximum altitude 17:56:13 51° 70° (ENE) 749 3.5 -16.6°
Drops below altitude 10° 18:00:16 10° 355° (N) 1,928 6.0 -17.3°
Sets 18:02:29 0° 351° (N) 2,835 6.9 -17.6°
